Regional Weather Roundup
Issued by NWS

Home | Current Version | Previous Version | Text Only | Print | Product List | Glossary Off
Versions: 1 2 3 4 5 6 7 8 9 10 11 12 13 14 15 16 17 18 19 20 21 22 23 24 25 26 27 28 29 30 31 32 33 34 35 36 37 38 39 40 41 42 43 44 45 46 47 48 49 50

429
ASUS43 KLSX 310257
RWRMO

WEATHER SUMMARY FOR MISSOURI
NATIONAL WEATHER SERVICE SPRINGFIELD MO
1000 PM CDT SAT JUL 30 2016

NOTE: "FAIR" INDICATES FEW OR NO CLOUDS BELOW 12,000 FEET WITH NO
       SIGNIFICANT WEATHER AND/OR OBSTRUCTIONS TO VISIBILITY.
       CURRENT SKY AND/OR WEATHER CONDITIONS ARE NOT AVAILABLE FOR
       CHILLICOTHE AND FARMINGTON.

MOZ001>031-035>038-043-044-053-054-310400-
...NORTHERN AND WESTERN MISSOURI...

CITY           SKY/WX    TMP DP  RH WIND       PRES   REMARKS
KANSAS CTY INT CLEAR     77  65  66 SE10      29.98R
LEE`S SUMMIT   CLEAR     77  68  73 SE6       29.99R
ST JOSEPH      CLEAR     71  67  87 CALM      29.96R

$$
MOZ066>068-077>081-088>096-101>105-310400-
...SOUTHWEST MISSOURI...

CITY           SKY/WX    TMP DP  RH WIND       PRES   REMARKS
SPRINGFIELD    CLEAR     76  69  79 SE3       30.00R
JOPLIN         CLEAR     77  72  84 S7        29.99R

$$
MOZ032>034-039>042-045>050-055>058-069>072-310400-
...CENTRAL MISSOURI...

CITY           SKY/WX    TMP DP  RH WIND       PRES   REMARKS
COLUMBIA       NOT AVBL
JEFFERSON CITY CLEAR     71  67  87 CALM      29.97R
ROLLA          CLEAR     71  67  87 CALM      29.99R
SEDALIA        CLEAR     74  67  78 CALM      30.00R

$$
MOZ051-052-059>065-310400-
...EAST CENTRAL MISSOURI...

CITY           SKY/WX    TMP DP  RH WIND       PRES   REMARKS
ST LOUIS INTL  CLEAR     78  66  66 CALM      29.97R

$$
MOZ072>076-082>087-097>100-106>115-310400-
...SOUTH CENTRAL AND SOUTHEAST MISSOURI...

CITY           SKY/WX    TMP DP  RH WIND       PRES   REMARKS
CAPE GIRARDEAU MOCLDY    77  71  82 CALM      29.96R
POPLAR BLUFF   CLOUDY    78  75  90 CALM      29.97R
WEST PLAINS    PTCLDY    75  71  87 CALM      30.03R

$$



USA.gov is the U.S. government's official web portal to all federal, state and local government web resources and services.